Location: Tafessasset
(32.5899°N, 5.4824°W)
Time: 10:01:06
(UTC+00:00)

Cosmos 1842 Rocket - Pass Details

Date: 18 February 2020
Orbit: 604 x 635 km, 82.5° (Epoch: 28 March)

Event Time Altitude Azimuth Distance (km) Brightness Sun altitude
Exits shadow 05:40:11 36° 282° (WNW) 996 4.1 -18.0°
Drops below altitude 10° 05:44:16 10° 348° (NNW) 2,020 6.0 -17.1°
Sets 05:46:41 0° 357° (N) 2,934 7.0 -16.6°
